Location: Borz?cin
(51.1714°N, 19.6030°E)
Time: 22:30:17
(UTC+00:00)

CZ-4C R/B - Pass Details

Date: 19 May 2025
Orbit: 501 x 1482 km, 63.4° (Epoch: 16 June)

Event Time Altitude Azimuth Distance (km) Brightness Sun altitude
Rises 19:29:00 0° 313° (NW) 3,740 8.2 -7.7°
Reaches altitude 10° 19:31:29 10° 308° (NW) 2,921 6.7 -8.0°
Maximum altitude 19:38:13 46° 238° (WSW) 1,635 3.8 -8.7°
Drops below altitude 10° 19:46:17 10° 169° (S) 3,497 4.9 -9.5°
Enters shadow 19:47:24 - 167° (SSE) 3,849 5.1 -9.6°
